Regional Weather Roundup
Issued by NWS

Home | Current Version | Previous Version | Text Only | Print | Product List | Glossary On
Versions: 1 2 3 4 5 6 7 8 9 10 11 12 13 14 15 16 17 18 19 20 21 22 23 24 25 26 27 28 29 30 31 32 33 34 35 36 37 38 39 40 41 42 43 44 45 46 47 48 49 50
297
ASUS43 KFSD 241002
RWRSD

WEATHER ROUNDUP FOR SOUTH DAKOTA
NATIONAL WEATHER SERVICE SIOUX FALLS SD
500 AM CDT THU AUG 24 2017

NOTE: "FAIR" INDICATES FEW OR NO CLOUDS BELOW 12,000 FEET WITH NO
SIGNIFICANT WEATHER AND/OR OBSTRUCTIONS TO VISIBILITY.


SDZ001>005-009-010-012>017-241100-
NORTHWEST AND NORTH CENTRAL SOUTH DAKOTA

CITY           SKY/WX    TMP DP  RH WIND       PRES   REMARKS
BUFFALO          N/A     60  57  89 SE5       29.93S
FAITH            N/A     63  59  87 SE9       29.97R
MOBRIDGE       CLEAR     59  57  93 NE8       29.94R
$$

SDZ012>016-024>037-041>051-057-063-072>074-241100-
SOUTHWEST AND SOUTH CENTRAL SOUTH DAKOTA

CITY           SKY/WX    TMP DP  RH WIND       PRES   REMARKS
RAPID CTY ARPT CLEAR     58  54  86 N5        30.00S
PIERRE         CLEAR     59  58  96 NE7       29.91R
CUSTER         CLEAR     59  47  64 NE6       30.11F
ELLSWORTH AFB  CLEAR     59  55  86 W5        29.99F
PHILIP         CLEAR     56  56 100 NW3       29.94S
PINE RIDGE     PTCLDY    62  61  96 E6        29.97S
SPEARFISH      FAIR      66  50  55 E14       30.01S
WINNER         FAIR      65  62  90 CALM      29.90F
$$

SDZ004>011-016>023-039-040-241100-
NORTHEAST SOUTH DAKOTA

CITY           SKY/WX    TMP DP  RH WIND       PRES   REMARKS
ABERDEEN       CLEAR     59  58  96 NE8       29.97F
WATERTOWN      CLEAR     58  56  93 E12G20    30.01S
BROOKINGS      CLOUDY    64  59  83 E12       30.00S
SISSETON         N/A     56  52  86 SE7       30.04S
$$

SDZ017-020-022-023-036>040-048>070-241100-
SOUTHEAST SOUTH DAKOTA

CITY           SKY/WX    TMP DP  RH WIND       PRES   REMARKS
SIOUX FALLS    CLOUDY    66  59  78 S10       29.99R
HURON          CLEAR     60  59  96 E8        29.93R
CHAMBERLAIN    CLEAR     61  60  96 NE6       29.88S
MITCHELL       CLEAR     64  59  83 SE12      29.91F
YANKTON        LGT RAIN  63  59  87 S20       29.96F
$$

ABBREVIATIONS USED IN REMARKS
   TC - TEMPERATURE IN CELSIUS
  WCI - WIND CHILL INDEX
   HX - HEAT INDEX
  VSB - VISIBILITY





USA.gov is the U.S. government's official web portal to all federal, state and local government web resources and services.